When you browse on this site, cookies collect data to enhance your experience and personalize the content and advertising you see.
Visit our Privacy Policy to learn more. By continuing to use the site, you agree to this use of cookies and data.
  • en France
  • Liste des pays
  • À 7 jours
  • Température de l'eau
  • Carte météo
  • Widgets météo
  • user-avatar
    Se connecter

    Météo par heure à Acuitzio del Canje

    Ce jour, 15 Septembre, Dimanche

    Heure Température Précipitation Vent Pression Humidité
    00:00 +13°C° 0.3 mm 0 m/s 594 mmHg 97%
    01:00 +14°C° 0.3 mm 1 m/s 593 mmHg 97%
    02:00 +14°C° 0.3 mm 1 m/s 593 mmHg 97%
    03:00 +14°C° 0 mm 1 m/s 593 mmHg 97%
    04:00 +13°C° 0 mm 1 m/s 593 mmHg 97%
    05:00 +13°C° 0 mm 1 m/s 592 mmHg 97%
    06:00 +14°C° 0 mm 1 m/s 593 mmHg 95%
    07:00 +15°C° 0 mm 1 m/s 594 mmHg 93%
    08:00 +18°C° 0 mm 1 m/s 595 mmHg 91%
    09:00 +19°C° 0.1 mm 1 m/s 595 mmHg 83%
    10:00 +21°C° 0.1 mm 1 m/s 596 mmHg 76%
    11:00 +23°C° 0.1 mm 1 m/s 596 mmHg 68%
    12:00 +23°C° 0.4 mm 1 m/s 595 mmHg 67%
    13:00 +23°C° 0.4 mm 1 m/s 595 mmHg 67%
    14:00 +23°C° 0.4 mm 1 m/s 594 mmHg 66%
    15:00 +22°C° 0.3 mm 1 m/s 593 mmHg 73%
    16:00 +21°C° 0.3 mm 1 m/s 593 mmHg 79%
    17:00 +20°C° 0.3 mm 1 m/s 592 mmHg 85%
    18:00 +19°C° 0.5 mm 1 m/s 592 mmHg 87%
    19:00 +16°C° 0.5 mm 1 m/s 592 mmHg 89%
    20:00 +15°C° 0.5 mm 1 m/s 592 mmHg 91%
    21:00 +14°C° 0.2 mm 1 m/s 592 mmHg 91%
    22:00 +13°C° 0.2 mm 0 m/s 593 mmHg 91%
    23:00 +13°C° 0.2 mm 0 m/s 593 mmHg 92%

    Demain, 16 Septembre, Lundi

    Heure Température Précipitation Vent Pression Humidité
    00:00 +13°C° 0 mm 0 m/s 593 mmHg 92%
    01:00 +13°C° 0 mm 0 m/s 592 mmHg 93%
    02:00 +12°C° 0 mm 0 m/s 592 mmHg 93%
    03:00 +13°C° 0 mm 1 m/s 592 mmHg 93%
    04:00 +13°C° 0 mm 1 m/s 592 mmHg 94%
    05:00 +13°C° 0 mm 1 m/s 592 mmHg 94%
    06:00 +15°C° 0 mm 1 m/s 593 mmHg 90%
    07:00 +16°C° 0 mm 1 m/s 594 mmHg 86%
    08:00 +19°C° 0 mm 1 m/s 595 mmHg 82%
    09:00 +21°C° 0.2 mm 1 m/s 595 mmHg 74%
    10:00 +23°C° 0.2 mm 1 m/s 596 mmHg 66%
    11:00 +24°C° 0.2 mm 2 m/s 596 mmHg 58%
    12:00 +24°C° 0.4 mm 2 m/s 595 mmHg 59%
    13:00 +24°C° 0.4 mm 2 m/s 594 mmHg 60%
    14:00 +24°C° 0.4 mm 2 m/s 594 mmHg 61%
    15:00 +23°C° 0.6 mm 1 m/s 593 mmHg 68%
    16:00 +22°C° 0.6 mm 1 m/s 593 mmHg 76%
    17:00 +20°C° 0.6 mm 1 m/s 592 mmHg 84%
    18:00 +19°C° 0.4 mm 1 m/s 592 mmHg 86%
    19:00 +16°C° 0.4 mm 1 m/s 592 mmHg 88%
    20:00 +15°C° 0.4 mm 1 m/s 592 mmHg 91%
    21:00 +15°C° 0.2 mm 1 m/s 592 mmHg 91%
    22:00 +14°C° 0.2 mm 1 m/s 592 mmHg 90%
    23:00 +14°C° 0.2 mm 1 m/s 592 mmHg 90%

    Après-demain, 17 Septembre, Mardi

    Heure Température Précipitation Vent Pression Humidité
    00:00 +14°C° 0.2 mm 1 m/s 592 mmHg 91%
    01:00 +14°C° 0.2 mm 1 m/s 592 mmHg 92%
    02:00 +14°C° 0.2 mm 1 m/s 592 mmHg 93%
    03:00 +13°C° 0 mm 1 m/s 592 mmHg 92%
    04:00 +13°C° 0 mm 1 m/s 592 mmHg 92%
    05:00 +13°C° 0 mm 1 m/s 592 mmHg 92%
    06:00 +15°C° 0 mm 1 m/s 593 mmHg 87%
    07:00 +16°C° 0 mm 0 m/s 595 mmHg 82%
    08:00 +18°C° 0 mm 0 m/s 596 mmHg 77%
    09:00 +21°C° 0.6 mm 1 m/s 596 mmHg 75%
    10:00 +22°C° 0.6 mm 1 m/s 596 mmHg 74%
    11:00 +23°C° 0.6 mm 1 m/s 596 mmHg 72%
    12:00 +23°C° 1.6 mm 1 m/s 595 mmHg 77%
    13:00 +22°C° 1.6 mm 1 m/s 594 mmHg 81%
    14:00 +22°C° 1.6 mm 1 m/s 593 mmHg 85%
    15:00 +21°C° 1.3 mm 1 m/s 593 mmHg 88%
    16:00 +20°C° 1.3 mm 1 m/s 592 mmHg 90%
    17:00 +18°C° 1.3 mm 0 m/s 592 mmHg 93%
    18:00 +18°C° 0.6 mm 1 m/s 592 mmHg 93%
    19:00 +16°C° 0.6 mm 1 m/s 592 mmHg 94%
    20:00 +15°C° 0.6 mm 1 m/s 593 mmHg 94%
    21:00 +15°C° 0.9 mm 1 m/s 593 mmHg 95%
    22:00 +15°C° 0.9 mm 1 m/s 593 mmHg 96%
    23:00 +15°C° 0.9 mm 1 m/s 593 mmHg 97%

    18 Septembre, Mercredi

    Heure Température Précipitation Vent Pression Humidité
    00:00 +15°C° 0.2 mm 1 m/s 593 mmHg 96%
    01:00 +14°C° 0.2 mm 1 m/s 593 mmHg 95%
    02:00 +14°C° 0.2 mm 1 m/s 593 mmHg 94%
    03:00 +14°C° 0 mm 1 m/s 592 mmHg 94%
    04:00 +13°C° 0 mm 1 m/s 592 mmHg 94%
    05:00 +12°C° 0 mm 0 m/s 592 mmHg 94%
    06:00 +14°C° 0 mm 0 m/s 593 mmHg 91%
    07:00 +16°C° 0 mm 0 m/s 594 mmHg 87%
    08:00 +18°C° 0 mm 0 m/s 595 mmHg 83%
    09:00 +21°C° 0.1 mm 1 m/s 596 mmHg 76%
    10:00 +23°C° 0.1 mm 1 m/s 596 mmHg 69%
    11:00 +24°C° 0.1 mm 2 m/s 596 mmHg 61%
    12:00 +23°C° 0.8 mm 1 m/s 595 mmHg 69%
    13:00 +23°C° 0.8 mm 1 m/s 594 mmHg 76%
    14:00 +22°C° 0.8 mm 1 m/s 593 mmHg 83%
    15:00 +21°C° 1.1 mm 1 m/s 593 mmHg 87%
    16:00 +20°C° 1.1 mm 1 m/s 593 mmHg 91%
    17:00 +19°C° 1.1 mm 1 m/s 592 mmHg 95%
    18:00 +18°C° 0.8 mm 1 m/s 593 mmHg 95%
    19:00 +18°C° 0.8 mm 1 m/s 593 mmHg 95%
    20:00 +16°C° 0.8 mm 1 m/s 593 mmHg 95%
    21:00 +16°C° 0.8 mm 1 m/s 593 mmHg 96%
    22:00 +14°C° 0.8 mm 0 m/s 593 mmHg 96%
    23:00 +14°C° 0.8 mm 0 m/s 593 mmHg 96%

    19 Septembre, Jeudi

    Heure Température Précipitation Vent Pression Humidité
    00:00 +14°C° 0.4 mm 0 m/s 593 mmHg 96%
    01:00 +13°C° 0.4 mm 0 m/s 592 mmHg 96%
    02:00 +13°C° 0.4 mm 0 m/s 592 mmHg 97%
    03:00 +13°C° 0 mm 0 m/s 592 mmHg 97%
    04:00 +13°C° 0 mm 0 m/s 592 mmHg 97%
    05:00 +14°C° 0 mm 1 m/s 592 mmHg 97%
    06:00 +15°C° 0 mm 1 m/s 592 mmHg 94%
    07:00 +16°C° 0 mm 1 m/s 593 mmHg 92%
    08:00 +19°C° 0 mm 1 m/s 594 mmHg 90%
    09:00 +20°C° 0.7 mm 1 m/s 594 mmHg 88%
    10:00 +21°C° 0.7 mm 1 m/s 594 mmHg 86%
    11:00 +22°C° 0.7 mm 1 m/s 594 mmHg 84%
    12:00 +22°C° 1.6 mm 1 m/s 594 mmHg 85%
    13:00 +22°C° 1.6 mm 1 m/s 593 mmHg 85%
    14:00 +22°C° 1.6 mm 1 m/s 592 mmHg 85%
    15:00 +21°C° 1 mm 1 m/s 592 mmHg 88%
    16:00 +20°C° 1 mm 1 m/s 591 mmHg 90%
    17:00 +17°C° 1 mm 0 m/s 591 mmHg 93%
    18:00 +16°C° 1.8 mm 0 m/s 591 mmHg 95%
    19:00 +16°C° 1.8 mm 1 m/s 592 mmHg 96%
    20:00 +15°C° 1.8 mm 1 m/s 592 mmHg 97%
    21:00 +15°C° 1.5 mm 1 m/s 592 mmHg 97%
    22:00 +15°C° 1.5 mm 1 m/s 592 mmHg 97%
    23:00 +14°C° 1.5 mm 2 m/s 592 mmHg 96%

    20 Septembre, Vendredi

    Heure Température Précipitation Vent Pression Humidité
    00:00 +14°C° 0.1 mm 1 m/s 592 mmHg 96%
    01:00 +14°C° 0.1 mm 1 m/s 591 mmHg 96%
    02:00 +13°C° 0.1 mm 1 m/s 591 mmHg 95%
    03:00 +13°C° 0 mm 1 m/s 591 mmHg 95%
    04:00 +13°C° 0 mm 1 m/s 591 mmHg 95%
    05:00 +13°C° 0 mm 1 m/s 591 mmHg 95%
    06:00 +14°C° 0 mm 1 m/s 592 mmHg 91%
    07:00 +16°C° 0 mm 1 m/s 593 mmHg 88%
    08:00 +17°C° 0 mm 0 m/s 594 mmHg 84%
    09:00 +20°C° 0.3 mm 1 m/s 594 mmHg 78%
    10:00 +22°C° 0.3 mm 1 m/s 595 mmHg 71%
    11:00 +23°C° 0.3 mm 2 m/s 595 mmHg 64%
    12:00 +23°C° 0.2 mm 2 m/s 594 mmHg 63%
    13:00 +23°C° 0.2 mm 2 m/s 594 mmHg 62%
    14:00 +23°C° 0.2 mm 2 m/s 593 mmHg 61%
    15:00 +21°C° 0.5 mm 2 m/s 593 mmHg 71%
    16:00 +21°C° 0.5 mm 1 m/s 592 mmHg 80%
    17:00 +20°C° 0.5 mm 1 m/s 592 mmHg 90%
    18:00 +18°C° 0.3 mm 1 m/s 592 mmHg 90%
    19:00 +15°C° 0.3 mm 1 m/s 592 mmHg 90%
    20:00 +14°C° 0.3 mm 1 m/s 592 mmHg 90%
    21:00 +14°C° 0 mm 1 m/s 592 mmHg 89%
    22:00 +13°C° 0 mm 1 m/s 592 mmHg 89%
    23:00 +13°C° 0 mm 1 m/s 592 mmHg 89%
    Voir plus